Home > Weather > Kehl > Past weeks

Flag for Germany Past Weather in Kehl, Baden-Württemberg, Germany — Yesterday and Last 2 Weeks

Now
77 °F

Mostly cloudy.


Feels Like: 79 °F
Forecast: 62 / 81 °F
Wind: 8 mph from Southwest

Location: Strasbourg Airport

Current Time: Jul 29, 2016 at 2:03:37 PM

Latest Report: Jul 29, 2016 at 1:30 PM


Visibility: N/A

Pressure: 29.98 "Hg

Humidity: 57%

Dew Point: 61 °F

Location of KehlLocation

Past Weather in Kehl — Graph

°F

Kehl Temperature Yesterday

Maximum temperature yesterday: 81 °F (at 3:00 PM)
Minimum temperature yesterday: 61 °F (at 2:30 AM)
Average temperature yesterday: 69 °F

High & Low Weather Summary for the Past Weeks

 TemperatureHumidityPressure
High95 °F (Jul 20, 5:30 PM)100% (Jul 15, 5:00 AM)30.33 "Hg (Jul 15, 5:00 AM)
Low50 °F (Jul 16, 3:30 AM)32% (Jul 20, 5:00 PM)29.89 "Hg (Jul 20, 11:00 PM)
Average71 °F72%30.10 "Hg
* Reported Jul 14 1:00 PM — Jul 29 1:00 PM, Kehl, Weather by CustomWeather, © 2016

Note: Actual official high and low records may vary slightly from our data, if they occured in-between our weather recording intervals... More about our weather records

Advertising

Kehl Weather History for the Previous 24 Hours

Scroll right to see more
 ConditionsComfort  
Time TempWeatherWind HumidityBarometerVisibility
1:00 PM
Fri, Jul 29
75 °FMostly cloudy.9 mph61%30.01 "HgN/A
12:30 PM75 °FPartly sunny.10 mph65%30.01 "HgN/A
12:00 PM73 °FMore clouds than sun.7 mph69%30.01 "HgN/A
11:30 AM73 °FBroken clouds.7 mph69%30.01 "HgN/A
11:00 AM73 °FMostly cloudy.7 mph74%30.01 "HgN/A
10:30 AM72 °FMostly cloudy.6 mph78%30.01 "HgN/A
10:00 AM70 °FMostly cloudy.6 mph83%30.01 "HgN/A
9:30 AM70 °FCloudy.8 mph83%30.01 "HgN/A
9:00 AM68 °FPartly sunny.9 mph83%30.01 "HgN/A
8:30 AM66 °FOvercast.9 mph94%30.01 "HgN/A
8:00 AM66 °FMostly cloudy.7 mph88%30.01 "HgN/A
7:30 AM66 °FMore clouds than sun.8 mph94%30.01 "HgN/A
7:00 AM64 °FPartly sunny.6 mph94%30.01 "HgN/A
6:30 AM64 °FPassing clouds.3 mph94%30.01 "HgN/A
6:00 AM64 °FMostly cloudy.1 mph94%30.01 "HgN/A
5:30 AM64 °FOvercast.2 mph94%30.01 "HgN/A
5:00 AM64 °FMostly cloudy.2 mph94%30.01 "HgN/A
4:30 AM64 °FMostly cloudy.1 mph94%30.04 "HgN/A
4:00 AM64 °FPartly cloudy.3 mph94%30.04 "HgN/A
3:30 AM64 °FMostly cloudy.5 mph94%30.04 "HgN/A
3:00 AM64 °FPartly cloudy.3 mph94%30.04 "HgN/A
2:30 AM64 °FPassing clouds.5 mph94%30.04 "HgN/A
2:00 AM64 °FPassing clouds.6 mph94%30.04 "HgN/A
1:30 AM64 °FOvercast.6 mph94%30.04 "HgN/A
1:00 AM66 °FMostly cloudy.6 mph94%30.04 "HgN/A
12:30 AM66 °FPassing clouds.3 mph88%30.04 "HgN/A
12:00 AM66 °FMostly cloudy.6 mph94%30.04 "HgN/A
11:30 PM
Thu, Jul 28
66 °FMostly cloudy.3 mph94%30.04 "HgN/A
11:00 PM66 °FLight rain. Mostly cloudy.3 mph94%30.04 "HgN/A
10:30 PM68 °FLight rain. Partly cloudy.6 mph88%30.04 "Hg6 mi
10:00 PM68 °FLight rain. Clear.5 mph83%30.01 "HgN/A
9:30 PM70 °FRain. Clear.7 mph78%30.01 "HgN/A
9:00 PM70 °FSunny.8 mph78%30.01 "Hg10 mi
8:30 PM70 °FSunny.6 mph78%30.01 "Hg10 mi
8:00 PM70 °FDrizzle. More clouds than sun.10 mph78%30.01 "HgN/A
7:30 PM70 °FLight rain. Mostly cloudy.16 mph78%30.01 "HgN/A
7:00 PM73 °FSunny.18 mph65%30.01 "Hg10 mi
6:30 PM77 °FBroken clouds.12 mph57%29.98 "HgN/A
6:00 PM79 °FMostly cloudy.3 mph51%29.98 "HgN/A
5:30 PM79 °FBroken clouds.3 mph51%30.01 "HgN/A
5:00 PM79 °FPartly sunny.5 mph51%30.01 "HgN/A
4:30 PM81 °FBroken clouds.7 mph45%30.01 "HgN/A
4:00 PM79 °FMore clouds than sun.6 mph51%30.01 "HgN/A
3:30 PM79 °FMostly cloudy.6 mph51%30.01 "HgN/A
3:00 PM81 °FPartly sunny.6 mph48%30.04 "HgN/A
2:30 PM79 °FSunny.3 mph51%30.04 "Hg10 mi
2:00 PM77 °FPartly sunny.6 mph54%30.04 "HgN/A
Weather by CustomWeather, © 2016

See weather overviewHow to use our weather pages